ASTRA 2F

Last updated on Mon Jul 07 2025 00:02:44 GMT+0000 (Coordinated Universal Time)

1 38778U 12051A 25187.56976716 .00000167 00000+0 00000+0 0 9994 2 38778 0.0655 248.6634 0002058 280.5481 348.8529 1.00271499 37672
UTC large
Height (km)
Speed (km/s)
/
Latitude / Longitude
Inclination (degrees)
Orbital Period (minutes)
Azimuth
Elevation
Range (km)
Doppler Factor

Next 0 passes for location: London (51.5072 / 0.1276)

Sorry there are no passes over London.